Lexington Weather

Lexington, Massachusetts, USA

78°F
7/25/2024 12:03pm 
  • Lexington Conditions: Mostly cloudy
  • Temperature: 77.7°F / 25.4°CWarmer 1.6°F than last hour.
  • Dew Point: 72.5°FIncreased 0.9°Fsince last hour.
  • Relative Humidity: 84%Decreased 2.0% since last hour.
  • Wind: Wind from SSE SSE 1 mph, 10-min avg: 2 mph, gust: 5 mph
  • Barometer: 29.94 inFalling 0.02  inHg/hr Falling Slowly
  • Visibility: 10 miles
  • Rain Today: 0.00 in
  •   

Regional Weather Roundup
for Boston, MA

        
000
ASUS41 KBOX 201610
RWRBOX

REGIONAL WEATHER ROUNDUP
NATIONAL WEATHER SERVICE BOSTON/NORTON MA
1200 PM EDT SAT JUL 20 2024

NOTE:  "FAIR" INDICATES FEW OR NO CLOUDS BELOW 12,000 FEET WITH NO 
SIGNIFICANT WEATHER AND/OR OBSTRUCTIONS TO VISIBILITY.

MAZALL-201700-
EASTERN MASSACHUSETTS
  
CITY           SKY/WX    TMP DP  RH WIND       PRES   REMARKS
BOSTON         PTSUNNY   83  56  39 SW12G20   30.07F                  
BEVERLY        PTSUNNY   83  55  38 W10       30.06F                  
LAWRENCE       PTSUNNY   82  55  39 W12G18    30.08F                  
BEDFORD        PTSUNNY   82  55  39 NW6       30.06F                  
NORWOOD        PTSUNNY   84  62  47 W9G17     30.08F                  
MARSHFIELD     PTSUNNY   82  57  42 SW8       30.07F                  
PLYMOUTH       CLOUDY    85  56  37 SW13G18   30.08F                  
TAUNTON        PTSUNNY   83  59  44 SW7       30.08F                  
NEW BEDFORD    CLOUDY    82  65  56 S12       30.09F                  
$$

MAZALL-201700-
CAPE COD AND THE ISLANDS
  
CITY           SKY/WX    TMP DP  RH WIND       PRES   REMARKS
FALMOUTH       SUNNY     81  63  54 SW12      30.12S                  
HYANNIS        CLOUDY    79  64  60 SW12      30.09S                  
CHATHAM        CLOUDY    82  68  62 SW12G17   30.11S                  
PROVINCETOWN   CLOUDY    79  64  60 SW9       30.10F                  
NANTUCKET      PTSUNNY   76  68  76 SW10      30.12S                  
MARTHAS VNYRD  PTSUNNY   78  67  68 S10       30.11S                  
$$
 
MAZALL-201700-
CENTRAL AND WESTERN MASSACHUSETTS
  
CITY           SKY/WX    TMP DP  RH WIND       PRES   REMARKS
WORCESTER      CLOUDY    77  54  44 W8        30.12F                  
FITCHBURG      PTSUNNY   82  57  42 W6        30.09S                  
ORANGE           N/A     80  53  39 W7        30.10S                  
SPRINGFIELD    MOSUNNY   81  58  45 SW5       30.06F                  
WESTFIELD      PTSUNNY   81  63  54 S10       30.09S                  
NORTH ADAMS    MOSUNNY   78  58  49 SW7       30.09F                  
PITTSFIELD     MOSUNNY   76  59  55 VRB5      30.11S                  
$$
 
RIZALL-201700-
RHODE ISLAND
  
CITY           SKY/WX    TMP DP  RH WIND       PRES   REMARKS
PROVIDENCE     CLOUDY    80  60  50 W8        30.10S                  
NEWPORT        CLOUDY    77  67  71 SW8       30.10F                  
BLOCK ISLAND   CLOUDY    77  66  68 SW13        N/A                   
SMITHFIELD     PTSUNNY   79  63  57 VRB5      30.10F                  
WESTERLY       CLOUDY    78  65  63 SW8       30.11S                  
$$
 
CTZALL-201700-
CONNECTICUT
  
CITY           SKY/WX    TMP DP  RH WIND       PRES   REMARKS
BRADLEY INTL   CLOUDY    82  62  50 S9        30.09F                  
HARTFORD       PTSUNNY   83  59  44 SW7       30.08F                  
PLAINVILLE     PTSUNNY   82  60  48 CALM      30.09F                  
BRIDGEPORT     CLOUDY    76  66  71 SW6       30.11S                  
DANBURY        PTSUNNY   81  61  50 CALM      30.12F                  
GROTON         CLOUDY    75  69  81 S7        30.10F                  
NEW HAVEN      CLOUDY    78  67  68 SW6       30.11F                  
CHESTER        CLOUDY    81  66  61 VRB6      30.12S                  
MERIDEN        PTSUNNY   80  60  50 SW6       30.10S                  
WILLIMANTIC    CLOUDY    80  59  48 W5        30.10F                  
OXFORD         PTSUNNY   78  62  57 S7        30.13F                  
$$

MEZ002-015-021-024-NHZ003-005-008-011-012-014-VTZ005-008-201700-
NORTHERN NEW ENGLAND
  
CITY           SKY/WX    TMP DP  RH WIND       PRES   REMARKS
PORTLAND ME    MOSUNNY   81  50  33 SW13      30.03F                  
BANGOR ME      PTSUNNY   80  61  52 SW10      30.00F                  
CONCORD NH     PTSUNNY   80  56  43 W9        30.07F                  
MANCHESTER NH  PTSUNNY   83  54  36 SW6       30.05F                  
NASHUA NH      PTSUNNY   82  58  43 W8        30.07F                  
PORTSMOUTH NH  PTSUNNY   82  57  42 W10       30.04F                  
JAFFREY NH     PTSUNNY   80  54  40 W9G17     30.11F                  
KEENE NH       PTSUNNY   78  59  51 SW5       30.08F                  
BURLINGTON VT  MOSUNNY   78  56  46 W7G21     30.04F                  
MT. WASHINGTON PTSUNNY   50  43  76 W16         N/A                   
$$

NYZ052-076-201700-
EASTERN NEW YORK
  
CITY           SKY/WX    TMP DP  RH WIND       PRES   REMARKS
ALBANY         PTSUNNY   81  59  47 VRB6      30.08F                  
NEW YORK CITY  CLOUDY    82  63  52 S8G18     30.10S                  
$$
 
ANZALL-201700-
MARINE OBSERVATIONS
  
STATION/POSITION TIME  TEMP    WIND        PRES    VSBY  WAVE
                       AIR SEA DIR/SP/G                  HT/PER
                 (UTC) (F)     (DEG/KT/KT) (MB)    (MI)  (FT/S)
BOSTON BUOY      1550   69 63  150/  4/  4 1018.6F         1/ 8
BUZZARDS BAY     1500   71     220/  8/  9 1019.9F
NANTUCKET SOUND  1550   76 76  240/ 10/ 12 1018.9F         1/ 2
MASS BAY-STELLWA 1404   65 63  230/  8/  8 1019.1F  1 7/8  1/ 8
ISLE OF SHOALS   1500   73     210/  8/  9 1017.7F
S OF BLOCK IS    1556      74                N/A           2/ 8
$$

......................KEY.........................
  SKY/WX - SKY CONDITION/PRESENT WEATHER
  TMP    - TEMPERATURE IN FAHRENHEIT
  DWPT   - DEWPOINT IN FAHRENHEIT
  RH     - RELATIVE HUMIDITY IN PERCENT
  WIND   - DIRECTION AND SPEED IN MPH
  PRES   - MEAN SEA LEVEL PRESSURE IN INCHES OF HG
  WCI    - WIND CHILL INDEX
  VSB    - VISIBILITY IN MILES
  HX     - HEAT INDEX
  TC     - TEMPERATURE IN CELSIUS
  VRB    - VARIABLE WIND DIRECTION
  N/A    - NOT AVAILABLE
  
      

Other recent Regional Weather Roundups

Thu Jul 25, 11:10am EDT

Thu Jul 25, 10:10am EDT

Thu Jul 25, 9:10am EDT

Thu Jul 25, 8:10am EDT

Thu Jul 25, 7:10am EDT

Thu Jul 25, 6:10am EDT

Thu Jul 25, 5:10am EDT

Thu Jul 25, 4:10am EDT

Thu Jul 25, 3:10am EDT

Thu Jul 25, 2:10am EDT

Thu Jul 25, 1:10am EDT

Thu Jul 25, 12:10am EDT

Wed Jul 24, 11:10pm EDT

Wed Jul 24, 10:10pm EDT

Wed Jul 24, 9:10pm EDT

Wed Jul 24, 8:10pm EDT

Wed Jul 24, 7:10pm EDT

Wed Jul 24, 6:10pm EDT

Wed Jul 24, 5:10pm EDT

Wed Jul 24, 4:10pm EDT

Wed Jul 24, 3:10pm EDT

Wed Jul 24, 2:10pm EDT

Wed Jul 24, 1:10pm EDT

Wed Jul 24, 12:10pm EDT

Wed Jul 24, 11:10am EDT

Wed Jul 24, 10:10am EDT

Wed Jul 24, 9:10am EDT

Wed Jul 24, 8:10am EDT

Wed Jul 24, 7:10am EDT

Wed Jul 24, 6:10am EDT

Wed Jul 24, 5:10am EDT

Wed Jul 24, 4:10am EDT

Wed Jul 24, 3:10am EDT

Wed Jul 24, 2:10am EDT

Wed Jul 24, 1:10am EDT

Wed Jul 24, 12:10am EDT

Tue Jul 23, 11:10pm EDT

Tue Jul 23, 10:10pm EDT

Tue Jul 23, 9:10pm EDT

Tue Jul 23, 8:10pm EDT

Tue Jul 23, 7:10pm EDT

Tue Jul 23, 6:10pm EDT

Tue Jul 23, 5:10pm EDT

Tue Jul 23, 4:10pm EDT

Tue Jul 23, 3:10pm EDT

Tue Jul 23, 2:10pm EDT

Tue Jul 23, 1:10pm EDT

Tue Jul 23, 12:10pm EDT

Tue Jul 23, 11:10am EDT

Tue Jul 23, 10:10am EDT

Tue Jul 23, 10:10am EDT

Tue Jul 23, 9:10am EDT

Tue Jul 23, 8:10am EDT

Tue Jul 23, 7:10am EDT

Tue Jul 23, 6:10am EDT

Tue Jul 23, 5:10am EDT

Tue Jul 23, 4:10am EDT

Tue Jul 23, 3:10am EDT

Tue Jul 23, 2:10am EDT

Tue Jul 23, 1:10am EDT

Tue Jul 23, 12:10am EDT

Mon Jul 22, 11:10pm EDT

Mon Jul 22, 10:10pm EDT

Mon Jul 22, 9:10pm EDT

Mon Jul 22, 8:10pm EDT

Mon Jul 22, 7:10pm EDT

Mon Jul 22, 6:10pm EDT

Mon Jul 22, 5:10pm EDT

Mon Jul 22, 4:10pm EDT

Mon Jul 22, 3:10pm EDT

Mon Jul 22, 2:10pm EDT

Mon Jul 22, 1:10pm EDT

Mon Jul 22, 12:10pm EDT

Mon Jul 22, 11:10am EDT

Mon Jul 22, 10:10am EDT

Mon Jul 22, 9:10am EDT

Mon Jul 22, 8:10am EDT

Mon Jul 22, 7:10am EDT

Mon Jul 22, 6:10am EDT

Mon Jul 22, 5:10am EDT

Mon Jul 22, 4:10am EDT

Mon Jul 22, 3:10am EDT

Mon Jul 22, 2:10am EDT

Mon Jul 22, 1:10am EDT

Mon Jul 22, 12:10am EDT

Sun Jul 21, 11:10pm EDT

Sun Jul 21, 10:10pm EDT

Sun Jul 21, 9:10pm EDT

Sun Jul 21, 8:10pm EDT

Sun Jul 21, 7:10pm EDT

Sun Jul 21, 6:10pm EDT

Sun Jul 21, 5:10pm EDT

Sun Jul 21, 4:10pm EDT

Sun Jul 21, 3:10pm EDT

Sun Jul 21, 2:10pm EDT

Sun Jul 21, 1:10pm EDT

Sun Jul 21, 12:10pm EDT

Sun Jul 21, 11:10am EDT

Sun Jul 21, 10:10am EDT

Sun Jul 21, 9:10am EDT

Sun Jul 21, 8:10am EDT

Sun Jul 21, 7:10am EDT

Sun Jul 21, 6:10am EDT

Sun Jul 21, 5:10am EDT

Sun Jul 21, 4:10am EDT

Sun Jul 21, 3:10am EDT

Sun Jul 21, 2:10am EDT

Sun Jul 21, 1:10am EDT

Sun Jul 21, 12:10am EDT

Sat Jul 20, 11:10pm EDT

Sat Jul 20, 10:10pm EDT

Sat Jul 20, 9:10pm EDT

Sat Jul 20, 8:10pm EDT

Sat Jul 20, 7:10pm EDT

Sat Jul 20, 6:10pm EDT

Sat Jul 20, 5:10pm EDT

Sat Jul 20, 4:10pm EDT

Sat Jul 20, 3:10pm EDT

Sat Jul 20, 2:10pm EDT

Sat Jul 20, 1:10pm EDT

Sat Jul 20, 11:10am EDT

Sat Jul 20, 10:10am EDT

Sat Jul 20, 9:10am EDT

Sat Jul 20, 8:10am EDT

Sat Jul 20, 7:10am EDT

Sat Jul 20, 6:10am EDT

Sat Jul 20, 5:10am EDT

Sat Jul 20, 4:10am EDT

Sat Jul 20, 3:10am EDT

Sat Jul 20, 2:10am EDT

Sat Jul 20, 1:10am EDT

Sat Jul 20, 12:10am EDT

Fri Jul 19, 11:10pm EDT

Fri Jul 19, 10:10pm EDT

Fri Jul 19, 9:10pm EDT

Fri Jul 19, 8:10pm EDT

Fri Jul 19, 7:10pm EDT

Fri Jul 19, 6:10pm EDT

Fri Jul 19, 5:10pm EDT

Fri Jul 19, 4:10pm EDT

Fri Jul 19, 3:10pm EDT

Fri Jul 19, 2:10pm EDT

Fri Jul 19, 1:10pm EDT

Fri Jul 19, 12:10pm EDT

Fri Jul 19, 11:10am EDT

Fri Jul 19, 10:10am EDT

Fri Jul 19, 9:10am EDT

Fri Jul 19, 8:10am EDT

Fri Jul 19, 7:10am EDT

Fri Jul 19, 6:10am EDT

Fri Jul 19, 5:10am EDT

Fri Jul 19, 4:10am EDT

Fri Jul 19, 3:10am EDT

Fri Jul 19, 2:10am EDT

Fri Jul 19, 1:10am EDT

Fri Jul 19, 12:10am EDT

Thu Jul 18, 11:10pm EDT

Thu Jul 18, 10:10pm EDT

Thu Jul 18, 9:10pm EDT

Thu Jul 18, 8:10pm EDT

Thu Jul 18, 7:10pm EDT

Thu Jul 18, 6:10pm EDT

Thu Jul 18, 5:10pm EDT

Thu Jul 18, 4:10pm EDT

Thu Jul 18, 3:10pm EDT

Thu Jul 18, 2:10pm EDT

Thu Jul 18, 1:10pm EDT

Thu Jul 18, 12:10pm EDT